This is the latest recevied weather packets stored in our database for station/object DO1BDB-12. If no packets are shown the sender has not sent any weather packets the latest 10 day(s).
| Time | Temp. | Humidity | Pressure | Rain* | Wind** | Luminosity | Snow |
|---|---|---|---|---|---|---|---|
| 1777456361 | 13.33° C | 32% | 103.1 hPa | - | - | - | - |
| 1777456295 | 13.89° C | 31% | 103.1 hPa | - | - | - | - |
| 1777456229 | 13.89° C | 32% | 103.1 hPa | - | - | - | - |
| 1777456163 | 13.89° C | 31% | 103.1 hPa | - | - | - | - |
| 1777456097 | 13.89° C | 31% | 103.1 hPa | - | - | - | - |
| 1777456031 | 13.33° C | 31% | 103.1 hPa | - | - | - | - |
| 1777455966 | 12.78° C | 31% | 103.1 hPa | - | - | - | - |
| 1777455900 | 15° C | 30% | 103.1 hPa | - | - | - | - |
| 1777455834 | 17.78° C | 30% | 103.1 hPa | - | - | - | - |
| 1777455768 | 16.67° C | 32% | 103.1 hPa | - | - | - | - |
| 1777455702 | 15° C | 30% | 103.1 hPa | - | - | - | - |
| 1777455636 | 16.11° C | 29% | 103.1 hPa | - | - | - | - |
| 1777455571 | 17.78° C | 29% | 103.1 hPa | - | - | - | - |
| 1777455505 | 16.67° C | 31% | 103.1 hPa | - | - | - | - |
| 1777455439 | 17.22° C | 29% | 103.1 hPa | - | - | - | - |
| 1777455373 | 15° C | 31% | 103.1 hPa | - | - | - | - |
| 1777455307 | 17.22° C | 29% | 103.1 hPa | - | - | - | - |
| 1777455242 | 16.67° C | 32% | 103.1 hPa | - | - | - | - |
| 1777455175 | 15° C | 31% | 103.1 hPa | - | - | - | - |
| 1777455110 | 16.67° C | 30% | 103.1 hPa | - | - | - | - |
| 1777455044 | 17.22° C | 30% | 103.1 hPa | - | - | - | - |
| 1777454978 | 16.11° C | 32% | 103.1 hPa | - | - | - | - |
| 1777454912 | 16.67° C | 29% | 103.1 hPa | - | - | - | - |
| 1777454846 | 16.67° C | 29% | 103.1 hPa | - | - | - | - |
| 1777454780 | 17.78° C | 28% | 103.1 hPa | - | - | - | - |
* Rain since midnight (hover to see other rain measurements)
** Current wind speed in m/s (hover to see current wind gust speed)